Time,TemperatureF,DewpointF,PressureIn,WindDirection,WindDirectionDegrees,WindSpeedMPH,WindSpeedGustMPH,Humidity,HourlyPrecipIn,Conditions,Clouds,dailyrainin,SoftwareType,DateUTC
2013-06-10 01:52:00,60.0,49.0,-100.00,East,89,1.0,3.0,67,-99.99,,,-99.99,,2013-06-10 08:52:00,
2013-06-10 02:02:00,60.0,49.0,-100.00,East,89,1.0,3.0,67,-99.99,,,-99.99,,2013-06-10 09:02:00,
2013-06-10 02:12:00,60.0,49.0,-100.00,East,89,1.0,3.0,67,-99.99,,,-99.99,,2013-06-10 09:12:00,
2013-06-10 02:22:00,59.0,50.0,-100.00,SSE,150,2.0,4.0,72,-99.99,,,-99.99,,2013-06-10 09:22:00,
2013-06-10 02:32:00,59.0,50.0,-100.00,SSE,150,2.0,4.0,72,-99.99,,,-99.99,,2013-06-10 09:32:00,
2013-06-10 02:42:00,59.0,48.0,-100.00,NNE,24,1.0,3.0,67,-99.99,,,-99.99,,2013-06-10 09:42:00,
2013-06-10 02:53:00,59.0,47.0,-100.00,East,93,2.0,4.0,64,-99.99,,,-99.99,,2013-06-10 09:53:00,
2013-06-10 03:02:00,59.0,47.0,-100.00,East,93,2.0,4.0,64,-99.99,,,-99.99,,2013-06-10 10:02:00,
2013-06-10 03:12:00,59.0,47.0,-100.00,East,93,2.0,4.0,64,-99.99,,,-99.99,,2013-06-10 10:12:00,
2013-06-10 03:22:00,58.0,47.0,-100.00,East,99,3.0,4.0,66,-99.99,,,-99.99,,2013-06-10 10:22:00,
2013-06-10 03:33:00,59.0,48.0,-100.00,ESE,112,2.0,4.0,66,-99.99,,,-99.99,,2013-06-10 10:33:00,
2013-06-10 03:42:00,59.0,48.0,-100.00,ESE,112,2.0,4.0,66,-99.99,,,-99.99,,2013-06-10 10:42:00,
2013-06-10 03:52:00,58.0,46.0,-100.00,ESE,106,4.0,6.0,65,-99.99,,,-99.99,,2013-06-10 10:52:00,
2013-06-10 04:02:00,58.0,46.0,-100.00,ESE,106,4.0,6.0,65,-99.99,,,-99.99,,2013-06-10 11:02:00,
2013-06-10 04:12:00,58.0,46.0,-100.00,ESE,106,4.0,6.0,65,-99.99,,,-99.99,,2013-06-10 11:12:00,
2013-06-10 04:22:00,58.0,46.0,-100.00,ESE,106,4.0,6.0,65,-99.99,,,-99.99,,2013-06-10 11:22:00,
2013-06-10 04:32:00,60.0,45.0,-100.00,East,83,5.0,7.0,58,-99.99,,,-99.99,,2013-06-10 11:32:00,
2013-06-10 04:42:00,60.0,45.0,-100.00,East,83,5.0,7.0,58,-99.99,,,-99.99,,2013-06-10 11:42:00,
2013-06-10 04:52:00,57.0,46.0,-100.00,SE,145,1.0,3.0,67,-99.99,,,-99.99,,2013-06-10 11:52:00,
2013-06-10 05:02:00,57.0,46.0,-100.00,SE,145,1.0,3.0,67,-99.99,,,-99.99,,2013-06-10 12:02:00,
2013-06-10 05:12:00,57.0,47.0,-100.00,ESE,112,6.0,7.0,69,-99.99,,,-99.99,,2013-06-10 12:12:00,
2013-06-10 05:22:00,57.0,47.0,-100.00,ESE,112,6.0,7.0,69,-99.99,,,-99.99,,2013-06-10 12:22:00,
2013-06-10 05:32:00,54.0,49.0,-100.00,WSW,254,3.0,5.0,83,-99.99,,,-99.99,,2013-06-10 12:32:00,
2013-06-10 05:42:00,54.0,49.0,-100.00,WSW,254,3.0,5.0,83,-99.99,,,-99.99,,2013-06-10 12:42:00,
2013-06-10 05:52:00,55.0,50.0,-100.00,SE,140,1.0,3.0,83,-99.99,,,-99.99,,2013-06-10 12:52:00,
2013-06-10 06:02:00,55.0,50.0,-100.00,SE,140,1.0,3.0,83,-99.99,,,-99.99,,2013-06-10 13:02:00,
2013-06-10 06:11:00,55.0,49.0,-100.00,ESE,104,1.0,5.0,79,-99.99,,,-99.99,,2013-06-10 13:11:00,
2013-06-10 06:22:00,55.0,49.0,-100.00,ESE,104,1.0,5.0,79,-99.99,,,-99.99,,2013-06-10 13:22:00,
2013-06-10 06:32:00,55.0,50.0,-100.00,SE,141,2.0,3.0,83,-99.99,,,-99.99,,2013-06-10 13:32:00,
2013-06-10 06:42:00,55.0,50.0,-100.00,SE,141,2.0,3.0,83,-99.99,,,-99.99,,2013-06-10 13:42:00,
2013-06-10 06:52:00,57.0,49.0,-100.00,ESE,102,2.0,5.0,74,-99.99,,,-99.99,,2013-06-10 13:52:00,
2013-06-10 07:02:00,57.0,49.0,-100.00,ESE,102,2.0,5.0,74,-99.99,,,-99.99,,2013-06-10 14:02:00,
2013-06-10 07:12:00,60.0,49.0,-100.00,NNE,17,1.0,4.0,67,-99.99,,,-99.99,,2013-06-10 14:12:00,
2013-06-10 07:22:00,60.0,49.0,-100.00,NNE,17,1.0,4.0,67,-99.99,,,-99.99,,2013-06-10 14:22:00,
2013-06-10 07:32:00,62.0,48.0,-100.00,NNW,340,0.0,2.0,61,-99.99,,,-99.99,,2013-06-10 14:32:00,
2013-06-10 07:42:00,62.0,48.0,-100.00,NNW,340,0.0,2.0,61,-99.99,,,-99.99,,2013-06-10 14:42:00,
2013-06-10 07:52:00,62.0,48.0,-100.00,NNW,340,0.0,2.0,61,-99.99,,,-99.99,,2013-06-10 14:52:00,
2013-06-10 08:02:00,62.0,48.0,-100.00,NNW,340,0.0,2.0,61,-99.99,,,-99.99,,2013-06-10 15:02:00,